Location: Beuvrequen
(50.8014°N, 1.6652°E)
Time: 07:57:20
(UTC+00:00)

Daily predictions for brighter satellites

Satellite Brightness Start Highest point End
(mag) Time Altitude Azimuth Time Altitude Azimuth Time Altitude Azimuth
Cosmos 2218 Rocket 4.1 17:20:51 10° S 17:27:02 64° E 17:33:18 10° NNE
Meteor 1-22 Rocket 4.5 17:25:07 10° S 17:31:08 85° E 17:37:18 10° NNE
Cosmos 1656 3.6 17:27:13 10° SSW 17:32:43 74° ESE 17:38:12 10° NNE
SL-8 Rocket 4.0 17:26:42 10° S 17:33:01 81° E 17:39:22 10° NNE
X-37B 3.0 17:32:14 10° S 17:33:21 11° SSE 17:34:27 10° SE
Genesis I 3.3 17:30:17 10° NW 17:34:23 69° NE 17:38:27 10° SE
deb Chang Zheng 4 3.5 17:32:24 10° SSE 17:36:36 82° ENE 17:40:51 10° NNW
ARGOS 3.4 17:32:28 10° SE 17:37:36 48° ENE 17:42:48 10° N
Cosmos 405 2.8 17:36:40 10° S 17:40:05 79° ESE 17:43:33 10° NNE
SME Rocket 3.6 17:37:33 10° N 17:41:21 63° WNW 17:46:01 10° SSW
Cosmos 2369 Rocket 4.5 17:38:23 10° WNW 17:41:48 16° NNW 17:45:13 10° N
Cosmos 1697 Rocket 3.0 17:37:08 10° S 17:42:31 48° ESE 17:47:57 10° NE
Cosmos 1125 Rocket 4.1 17:38:04 10° SSE 17:42:48 35° ESE 17:47:32 10° NE
Cosmos 1607 4.0 17:39:40 10° NW 17:46:02 72° NE 17:52:13 10° SE
Cosmos 1908 4.1 17:43:13 10° SSE 17:46:33 28° E 17:49:54 10° NNE
Cosmos 1356 3.3 17:43:30 10° NNW 17:46:55 87° E 17:50:18 10° SSE
Cosmos 2227 Rocket 2.9 17:42:59 10° NW 17:48:35 60° WSW 17:54:08 10° SSE
Iridium 4 Rocket 4.1 17:46:58 10° NNE 17:50:35 25° ENE 17:54:25 10° SE
Cosmos 494 Rocket 4.0 17:46:25 10° NNW 17:51:41 82° ENE 17:56:53 10° SSE
Landsat 5 3.8 17:48:16 10° NNE 17:52:26 48° E 17:56:42 10° S
SJ-11-01 4.3 17:48:10 10° SSE 17:52:46 62° ENE 17:57:26 10° N
Gbstr 26 Del rocket 4.4 17:46:53 10° WNW 17:53:50 89° NNE 18:01:28 12° ESE
MOS 1-B Rocket 4.4 17:47:23 10° NNE 17:54:23 49° E 18:00:22 10° S
CZ-2C R/B 3.0 17:49:14 10° NNE 17:54:41 49° E 18:00:04 10° S
Timation 2 Rocket 4.5 17:48:31 10° NW 17:55:25 75° WSW 18:02:10 10° SSE
SKYMED 2 3.7 17:51:08 10° NNE 17:55:26 55° E 17:59:41 10° S
Cosmos 2344 4.4 17:48:33 10° NW 17:56:28 47° NNE 18:05:54 13° E
Cosmos 1726 3.4 17:55:57 10° SSW 17:59:26 44° WNW 18:02:56 10° N
Cosmos 1844 Rocket 4.3 17:55:58 10° N 17:59:41 18° NNE 18:02:41 12° ENE
Okean 2 Rocket 4.3 17:56:35 10° SSW 18:00:51 46° WNW 18:05:11 10° N
Cosmos 1470 3.5 17:57:30 10° SSW 18:01:25 57° WNW 18:05:22 10° N
USA 215 3.6 17:55:03 10° ENE 18:01:27 61° NNW 18:07:54 10° W
Okean O Rocket 1.6 17:59:01 10° SSE 18:03:22 86° WSW 18:07:45 10° NNW
Cosmos 2084 Rocket 3.1 17:59:31 10° SW 18:03:23 89° SE 18:07:21 10° NE
Cosmos 2123 Rocket 4.4 17:59:16 10° N 18:05:18 43° ENE 18:11:17 10° SE
Cosmos 1703 3.4 18:03:04 10° N 18:06:56 51° ENE 18:10:46 10° SSE
Cosmos 1758 3.4 18:04:17 10° SSW 18:08:16 82° W 18:12:17 10° N
CZ-4 R/B 1.5 18:05:45 10° SE 18:09:34 49° ENE 18:13:30 10° N
YAOGAN 1 2.7 18:06:10 10° SE 18:10:22 52° ENE 18:14:36 10° N
Okean-O 3.3 18:08:06 10° SE 18:12:06 34° ENE 18:16:08 10° N
SL-19 R/B 4.4 18:06:16 10° NNE 18:12:14 84° WNW 18:17:51 10° SSW
Cosmos 2082 3.9 18:08:11 10° NNW 18:13:49 74° WSW 18:19:24 10° SSE
Cosmos 1455 Rocket 3.5 18:10:46 10° SSE 18:14:51 39° E 18:19:00 10° NNE
Spot 2 3.9 18:14:31 10° SSE 18:18:34 84° ENE 18:22:49 10° NNW
H-2A R/B 2.7 18:14:59 10° NE 18:18:37 29° E 18:22:14 10° SSE
Cosmos 1953 2.4 18:14:57 10° S 18:18:55 56° E 18:22:55 10° NNE
Cosmos 1727 Rocket 4.3 18:13:05 10° NNW 18:19:17 70° W 18:25:25 10° S
Okean 1-7 Rocket 4.0 18:16:07 10° N 18:20:17 40° ENE 18:24:27 10° SE
Cosmos 1328 4.2 18:17:31 10° N 18:21:22 42° ENE 18:25:11 10° SSE
Cosmos 2150 Rocket 4.0 18:16:51 10° SSW 18:22:17 78° ESE 18:27:41 10° NNE
Meteor 1-21 Rocket 4.3 18:16:31 10° NNW 18:22:22 87° ENE 18:28:17 10° SSE
Cosmos 1544 Rocket 4.2 18:24:09 10° SSE 18:28:08 32° E 18:32:07 10° NNE
H-2A R/B 3.4 18:27:35 10° S 18:32:41 45° W 18:37:55 10° NNW
Lacrosse 4 Rocket 2.8 18:31:52 10° NNW 18:35:19 23° NE 18:36:04 22° NE
ATLAS 3B R/B 2.7 18:28:47 10° SW 18:35:23 85° NW 18:42:20 10° NE
SeaSat 1 4.5 18:34:25 11° NE 18:35:46 13° NNE 18:37:47 10° N
Cosmos 1300 4.2 18:32:47 10° SSE 18:38:01 21° NE 18:39:39 10° NNE
Cosmos 405 Rocket 2.7 18:32:39 10° NNW 18:36:35 86° E 18:40:34 10° SSE
OBJECT-B 2.7 18:39:30 18° NNE 18:39:30 18° NNE 18:40:42 10° NNE
Okean 1 Rocket 4.3 18:36:15 10° SSW 18:40:23 43° WNW 18:44:34 10° N
COSMO-SKYMED 1 3.4 18:39:18 10° N 18:43:33 52° WNW 18:47:45 10° SW
OPS 6432 4.2 18:41:35 10° NW 18:44:32 78° SW 18:45:27 42° SSE
ATLAS 5 CENTAUR R/B 1.9 18:41:52 10° S 18:45:30 37° ESE 18:45:39 37° ESE
Cosmos 1602 Rocket 4.0 18:44:31 10° N 18:48:39 38° ENE 18:48:52 38° E
Cosmos 2227 4.2 18:45:29 10° NNW 18:51:18 78° ENE 18:55:04 23° SE
CZ-4C R/B 4.1 18:48:38 10° N 18:51:58 44° WNW 18:55:13 10° SW
Cosmos 2369 3.8 18:47:50 10° SSW 18:53:30 80° WNW 18:59:15 10° NNE
HJ-1C 3.7 18:51:07 12° S 18:54:06 61° WSW 18:57:21 10° NNW
IRS-1C Rocket 4.1 18:52:27 10° SSE 18:57:43 82° WSW 19:03:01 10° NNW
H-2A R/B 3.8 18:54:23 10° S 18:58:34 43° W 19:02:40 10° NNW
In-Cosmos 22 Rocket 4.4 18:53:32 10° N 18:58:41 44° ENE 18:59:43 39° E
Cosmos 1605 Rocket 4.1 18:52:43 10° SSE 18:58:42 51° E 19:04:47 10° NNE
CENTAUR R/B 4.1 18:54:12 10° WNW 19:00:17 32° N 19:06:08 14° NE
Cosmos 389 Rocket 4.3 18:57:24 10° SW 19:00:29 32° WNW 19:03:36 10° N
USA 186 3.7 19:04:38 20° N 19:04:38 20° N 19:05:45 10° N
Cosmos 1174 3.3 18:59:54 10° SW 19:03:05 67° NW 19:03:08 67° NW
Cosmos 1535 Rocket 4.4 18:57:12 10° S 19:03:25 73° E 19:09:44 10° NNE
Cosmos 1980 Rocket 2.2 19:01:59 10° SSW 19:07:39 81° WNW 19:13:24 10° NNE
Cosmos 2263 Rocket 2.4 19:03:07 10° NNW 19:08:40 68° WSW 19:12:46 18° SSE
X-37B 2.7 19:06:37 10° SW 19:08:08 20° SSW 19:08:08 20° SSW
Meteor 2-10 Rocket 3.9 19:09:27 44° E 19:09:27 44° E 19:14:35 10° NNE
Cosmos 1269 Rocket 4.3 19:05:18 10° NNW 19:10:36 69° WSW 19:14:31 18° S
CSL-04 Debris 4.1 19:08:41 14° SSE 19:13:25 83° WSW 19:18:52 10° NNW
Cosmos 1758 Rocket 4.4 19:12:38 10° N 19:15:33 35° NNE 19:15:33 35° NNE
SJ-6B 3.6 19:21:19 39° N 19:21:19 39° N 19:23:54 10° N
Cosmos 1892 4.3 19:19:55 10° N 19:21:40 25° N 19:21:40 25° N
Cosmos 614 Rocket 4.1 19:19:17 10° NNW 19:24:04 53° NE 19:24:04 53° NE
Cosmos 2251 Rocket 3.7 19:19:25 10° NNW 19:24:31 52° ENE 19:24:31 52° ENE
Cosmos 1697 Rocket 4.1 19:21:24 10° WSW 19:26:39 38° NW 19:31:56 10° NNE
Cosmos 1626 Rocket 3.8 19:22:42 10° NNW 19:27:01 67° W 19:28:11 45° SSW
CSL-04 Rocket 4.1 19:30:11 18° S 19:34:14 64° WSW 19:39:47 10° NNW
CZ-2C R/B 4.4 19:29:49 10° N 19:34:48 33° WNW 19:39:44 10° SW
Cosmos 2278 4.0 19:31:40 10° SW 19:37:19 66° WNW 19:43:01 10° NNE
Ariane Rocket 3.7 19:41:05 42° NNE 19:41:05 42° NNE 19:44:50 10° N
Orbus 7S? 3.9 19:32:51 10° WNW 19:41:42 88° SSW 19:41:55 82° SE
USA 215 3.7 19:42:01 40° NE 19:44:01 53° N 19:50:21 10° WNW
Cosmos 1844 Rocket 2.8 19:39:14 10° NNW 19:44:21 58° NE 19:44:21 58° NE
CZ-4 R/B 4.1 19:42:03 10° SW 19:44:51 18° W 19:47:43 10° NW
Cosmos 2278 Rocket 3.9 19:43:04 10° NNW 19:46:37 19° NNE 19:46:37 19° NNE
Okean-O 4.3 19:45:17 14° SSW 19:48:36 32° W 19:52:36 10° NNW
SL-16 R/B 3.7 19:48:53 10° SSW 19:50:51 23° SSW 19:50:51 23° SSW
H-2A R/B 3.6 19:50:56 10° N 19:54:35 32° WNW 19:58:16 10° SW
Cosmos 407 Rocket 4.5 19:52:16 10° NNW 19:55:49 37° NNE 19:55:49 37° NNE
Resurs 01 Rocket 3.6 20:03:55 21° N 20:03:55 21° N 20:05:27 10° N
IRS-1A Rocket 4.3 20:05:06 80° N 20:05:06 80° N 20:10:40 10° NNW
Cosmos 1932 4.5 20:02:26 10° NW 20:08:10 70° N 20:08:10 70° N
OBJECT-B 4.1 20:12:23 11° NW 20:12:23 11° NW 20:12:39 10° NW
Cosmos 1844 4.1 20:05:19 10° NNW 20:10:05 60° N 20:10:05 60° N
Cosmos 2344 4.3 20:02:56 10° NW 20:11:53 78° SW 20:15:56 47° SSE
SeaSat 1 4.0 20:14:12 27° N 20:14:12 27° N 20:16:44 10° NNW
Lacrosse 4 Rocket 3.2 20:10:07 10° NW 20:12:22 30° NW 20:12:22 30° NW
ATLAS 3B R/B 4.0 20:20:54 10° W 20:27:00 35° NNW 20:30:33 22° NNE
ATLAS 5 CENTAUR R/B 4.0 20:26:11 10° WSW 20:27:13 17° W 20:27:13 17° W
Cosmos 1980 Rocket 4.4 20:48:14 10° W 20:52:35 22° NW 20:56:58 10° NNE
CENTAUR R/B 3.9 20:46:07 10° NW 20:53:04 39° NNE 20:53:18 39° NNE
USA 215 4.3 21:29:23 39° NW 21:29:23 39° NW 21:33:16 10° WNW
Cosmos 2278 Rocket 4.4 21:26:37 10° NNW 21:28:27 21° NNW 21:28:27 21° NNW
ATLAS 3B R/B 4.5 22:13:47 10° NW 22:17:47 25° NNW 22:17:47 25° NNW
CENTAUR R/B 4.5 22:37:00 10° NW 22:40:27 31° NW 22:40:27 31° NW
